Volver al catálogo

BREEZE-M DEB

LostHEO
NORAD 34227·DEBRIS·🇷🇺 Russia

Lanzado Feb 28, 2006 desde Baikonur Cosmodrome

Loading…

Próximos Pases (próximas 24 horas)

TLE

ObsoletoSource: Space-Track

Época: Feb 19, 2022, 04:02 UTC

1 34227U 06006AS  22050.16848421  .00001901  00000-0  62881-2 0  9991
2 34227  52.0006 198.5307 4921515 205.2132 351.1809  5.39102385270819

Sigue BREEZE-M DEB en tiempo real con AllMySat

Download on the App Store